Regional Weather Roundup
Issued by NWS Glasgow, MT

Home | Current Version | Previous Version | Text Only | Print | Product List | Glossary On
Versions: 1 2 3 4 5 6 7 8 9 10 11 12 13 14 15 16 17 18 19 20 21 22 23 24 25 26 27 28 29 30 31 32 33 34 35 36 37 38 39 40 41 42 43 44 45 46 47 48 49 50
000
ASUS45 KGGW 290615
RWRGGW
HOURLY WEATHER ROUNDUP FOR NORTHEAST MONTANA
NATIONAL WEATHER SERVICE GLASGOW MONTANA
1200 AM MDT SUN MAR 29 2015

NOTE: "FAIR" INDICATES FEW OR NO CLOUDS BELOW 12,000 FEET WITH NO
SIGNIFICANT WEATHER AND/OR OBSTRUCTIONS TO VISISBILITY.

NORTHEAST MONTANA


CITY           SKY/WX    TMP DP  RH WIND       PRES   REMARKS
GLASGOW        CLOUDY    44  38  79 NW28G44   29.95R
6HR MIN TEMP:  44; 6HR MAX TEMP:  54; 6HR PCP:  0.11;

PLENTYWOOD       N/A     40  37  89 N23G43      N/A
WOLF POINT     CLOUDY    45  40  82 NW29G40   29.89R
JORDAN           N/A     44  39  82 NW28G38   29.99R
WINNETT          N/A     45  37  73 W26G40      N/A
SIDNEY         CLOUDY    45  39  81 NW29G40   29.75R
GLENDIVE         N/A     43  39  87 W33       29.79R
MALTA            N/A     45  38  76 W15G25      N/A
SCOBEY           N/A     40  34  79 NW25G36   29.83R

FORT PECK REPORTS


CITY           SKY/WX    TMP DP  RH WIND       PRES   REMARKS
FORT PECK        N/A     45  41  86 NW32G44     N/A
THE PINES        N/A     45  38  76 NW15G24     N/A

SOUTHEAST MONTANA


CITY           SKY/WX    TMP DP  RH WIND       PRES   REMARKS
BILLINGS       CLOUDY    46  29  51 NW14      30.14R
MILES CITY     LGT RAIN  41  50 100 NW26G35   29.94R
BAKER          LGT RAIN  41  37  86 W36G49    29.81R
LIVINGSTON     CLOUDY    45  21  38 W14       30.22R

CENTRAL MONTANA


CITY           SKY/WX    TMP DP  RH WIND       PRES   REMARKS
HAVRE          CLOUDY    44  40  85 W10       30.09R
LEWISTOWN      CLOUDY    41  36  82 SW10      30.14S
GREAT FALLS    MOCLDY    42  26  53 SW13      30.15R
CUT BANK       CLEAR     41  30  65 W22       30.08S
HELENA         PTCLDY    45  26  47 W9        30.23R
BUTTE          PTCLDY    36  22  56 NW9       30.29S
BOZEMAN        PTCLDY    40  21  46 W6        30.27R

WESTERN MONTANA


CITY           SKY/WX    TMP DP  RH WIND       PRES   REMARKS
MISSOULA       MOCLDY    40  31  70 N6        30.32R
KALISPELL      NOT AVBL

NORTH DAKOTA


CITY           SKY/WX    TMP DP  RH WIND       PRES   REMARKS
WILLISTON      LGT RAIN  41  37  86 N32G43    29.73R
DICKINSON      PTCLDY    46  35  65 W26G36    29.65F
MINOT          CLOUDY    49  46  90 W21G29    29.53S
BISMARCK       CLOUDY    50  41  71 W17       29.62S

SOUTHERN SASKATCHEWAN


CITY           SKY/WX    TMP DP  RH WIND       PRES   REMARKS
REGINA         CLEAR     36  34  93 NW16      29.81R
ESTEVAN        LGT RAIN  39  36  87 NW25G35   29.69R
SWIFT CURRENT  CLEAR     36  34  93 W10       29.95R



USA.gov is the U.S. government's official web portal to all federal, state and local government web resources and services.